Location: Home
(42.5358°N, 72.7383°W)
Time: 21:23:45
(UTC-05:00)

Vanguard 2 - Pass Details

Date: 06 December 2021
Orbit: 553 x 2936 km, 32.9° (Epoch: 20 January)

Event Time Altitude Azimuth Distance (km) Brightness Sun altitude
Rises 17:49:50 0° 260° (W) 3,843 12.9 -16.4°
Reaches altitude 10° 17:53:09 10° 242° (WSW) 3,232 12.0 -17.0°
Maximum altitude 17:58:32 19° 202° (SSW) 3,148 11.1 -17.9°
Drops below altitude 10° 18:05:39 10° 164° (SSE) 4,460 11.4 -19.2°
Sets 18:11:33 0° 149° (SSE) 5,937 11.9 -20.3°
